Location: M�nsingen
(48.4098°N, 9.4963°E)
Time: 17:17:22
(UTC+02:00)

ISS - Visible Passes

Search period start: 18 May 2021 00:00
Search period end: 28 May 2021 00:00
Orbit: 417 x 422 km, 51.6° (Epoch: 18 May)

Date Brightness Start Highest point End Pass type
(mag) Time Alt. Az. Time Alt. Az. Time Alt. Az.
18 May -3.1 01:18:59 10° WNW 01:22:19 54° NNE 01:22:53 47° NE visible
18 May -3.2 22:54:19 10° W 22:57:40 60° NNW 23:01:01 10° ENE visible
19 May -2.8 00:31:30 10° WNW 00:34:47 48° N 00:36:27 25° ENE visible
19 May -1.6 02:08:22 10° WNW 02:09:22 18° WNW 02:09:22 18° WNW visible
19 May -3.5 22:06:48 10° WSW 22:10:10 75° NNW 22:13:33 10° ENE visible
19 May -2.7 23:43:58 10° WNW 23:47:14 46° N 23:50:17 11° ENE visible
20 May -2.8 01:20:53 10° WNW 01:23:12 40° WNW 01:23:12 40° WNW visible
20 May -2.7 22:56:24 10° W 22:59:41 47° N 23:02:58 10° ENE visible
21 May -3.5 00:33:25 10° WNW 00:36:47 66° NNE 00:37:06 61° NE visible
21 May -2.8 22:08:50 10° W 22:12:08 51° N 22:15:26 10° ENE visible
21 May -3.1 23:45:56 10° WNW 23:49:16 54° NNE 23:51:03 24° E visible
22 May -1.7 01:22:48 10° WNW 01:23:59 19° W 01:23:59 19° W visible
22 May -2.8 22:58:25 10° WNW 23:01:43 48° N 23:05:00 10° E visible
23 May -3.3 00:35:18 10° WNW 00:37:58 51° W 00:37:58 51° W visible
23 May -2.7 22:10:52 10° WNW 22:14:09 46° N 22:17:25 10° ENE visible
23 May -3.8 23:47:48 10° WNW 23:51:11 85° NNE 23:51:59 50° ESE visible
24 May -3.5 23:00:19 10° WNW 23:03:40 66° NNE 23:06:01 18° E visible
25 May -2.0 00:37:17 10° W 00:38:57 23° W 00:38:57 23° W visible
25 May -3.1 22:12:50 10° WNW 22:16:09 55° NNE 22:19:28 10° E visible
25 May -3.5 23:49:41 10° WNW 23:52:57 48° SSW 23:53:00 48° SSW visible
26 May -3.8 23:02:10 10° WNW 23:05:32 70° SSW 23:07:06 29° SE visible
27 May -1.0 00:39:54 10° W 00:40:02 10° WSW 00:40:02 10° WSW visible
27 May -3.7 22:14:39 10° WNW 22:18:02 85° NNE 22:21:12 11° ESE visible
27 May -2.1 23:51:52 10° W 23:54:09 21° SW 23:54:09 21° SW visible
